User: anonymous   Login
Location: Castro Valley
(37.6940°N, 122.0850°W)
Time: 04:10:56
(UTC-07:00)
Language:

PANSAT - Orbit

View from above orbital plane
View from above orbital plane
View from above satellite
View from above satellite

Ground track
Ground track

The orbit data is extracted from the following two-line orbital elements,

1 25520U 98064B   17083.73038031 +.00001089 +00000-0 +30596-4 0  9990
2 25520 028.4551 199.5591 0005486 143.6561 216.4407 15.28249349021047
Epoch (UTC): 24 March 2017 17:31:44
Eccentricity: 0.0005486
inclination: 28.4551°
perigee height: 477 km
apogee height: 485 km
right ascension of ascending node: 199.5591°
argument of perigee: 143.6561°
revolutions per day: 15.28249349
mean anomaly at epoch: 216.4407°
orbit number at epoch: 2104

The dashed part of the orbit path shows where the satellite is in the earth's shadow,  

DLR